{"data":{"norad_id":62866,"intl_designator":"2025-022N","name":"STARLINK-32695","alt_names":[],"object_type":"PAYLOAD","status":"ACTIVE","operator":null,"country":"US","launch_date":"2025-02-01","launch_site_code":"AFWTR","launch_vehicle":null,"mission":null,"orbit_class":"UNKNOWN","rcs_meters":null,"size_class":null,"mass_kg":null,"dimensions":null,"purposes":["comms"],"wikipedia_slug":null,"has_3d_model":false,"image_url":null,"decayed_at":null,"tle_current":{"epoch":"2026-05-25T03:38:54.591936Z","epoch_age_seconds":61982,"freshness":"FRESH","line1":"1 62866U 25022N   26145.15202074  .00026127  00000+0  78126-3 0  9992","line2":"2 62866  53.1589 133.2667 0001391  85.8952 274.2209 15.34418001 73621","mean_motion":15.34418001,"eccentricity":0.0001391,"inclination_deg":53.1589,"raan_deg":133.2667,"arg_perigee_deg":85.8952,"mean_anomaly_deg":274.2209,"bstar":0.00078126,"rev_number":7362,"period_min":93.846657107876,"perigee_km":461.69818452937,"apogee_km":463.60129139987,"semimajor_km":6840.7867379646,"source":"CELESTRAK","updated_at":"2026-05-25T13:38:19.785603Z"}}}